Theta_e
317 316 316 316 315 316 316 317 317 317 317 318 318 318 318 318 318 318 318 318 318 319 318 318 319 320 314 303 306 325 340 333 310 304 301 301 298 294 298 294 294 292 296 296 299 305 312
318 316 316 315 316 316 316 317 317 317 317 317 317 318 318 318 317 317 317 316 317 317 318 318 319 322 310 302 311 322 315 310 306 302 303 302 303 300 295 295 294 297 296 298 296 305 317
318 317 317 316 315 316 316 317 318 318 318 317 317 317 317 317 317 317 317 316 316 317 318 319 320 320 307 304 312 314 310 306 307 308 305 305 304 299 298 296 297 296 294 296 304 300 314
318 319 318 317 316 316 317 317 318 318 317 317 317 316 316 316 316 317 317 316 316 318 320 320 321 313 301 311 311 308 308 308 310 309 308 308 304 299 295 298 299 296 293 290 299 307 311
320 319 318 317 317 316 317 317 317 317 318 317 317 316 316 316 316 316 316 315 317 321 321 322 313 311 306 320 309 311 309 308 307 308 307 312 303 297 298 293 292 292 289 290 300 309 309
320 320 319 318 317 317 317 317 317 317 317 317 317 316 315 315 315 315 314 315 319 320 319 321 318 304 308 308 313 310 307 308 307 306 304 302 297 295 293 292 288 290 290 295 299 306 309
321 320 320 319 318 318 317 317 317 317 317 317 317 316 314 315 314 313 312 305 303 302 303 300 304 307 310 314 314 308 309 307 306 303 296 299 296 292 294 295 295 294 297 300 303 307 305
321 320 320 319 320 318 317 317 317 317 317 317 316 316 315 314 314 313 309 304 304 302 297 304 303 305 309 310 307 309 309 302 301 296 298 296 294 298 299 299 297 296 295 297 303 308 306
320 320 319 319 319 318 317 317 317 316 316 316 315 315 314 314 312 307 305 307 309 303 297 302 305 304 305 307 305 306 306 302 299 296 295 294 298 302 301 298 298 294 293 295 297 305 305
318 319 320 319 318 317 317 317 317 317 316 315 315 314 314 312 304 303 302 308 305 304 296 301 304 307 303 305 303 310 307 304 300 297 297 296 300 301 299 299 297 292 298 298 303 297 293
318 318 319 318 317 317 317 317 316 316 316 315 315 315 313 313 303 301 303 305 306 306 288 305 300 305 302 303 304 305 307 305 298 300 298 299 299 298 298 298 299 296 303 299 300 293 295
318 319 318 318 317 317 316 316 316 315 315 315 315 314 313 308 302 305 305 305 305 296 289 301 300 300 300 302 303 304 305 306 305 299 300 298 303 299 299 302 302 302 300 297 295 294 290
318 318 318 317 317 317 316 315 315 315 314 314 314 313 310 309 302 306 305 304 291 292 303 299 297 298 297 297 299 301 301 298 297 296 295 300 299 303 303 298 301 299 293 287 287 287 288
318 318 318 317 317 316 315 315 314 314 313 313 311 309 307 308 306 306 305 298 288 298 301 307 300 298 296 298 299 300 300 297 302 298 295 292 292 302 305 297 297 295 293 289 285 284 287
318 318 318 317 316 316 315 314 313 312 312 310 308 303 303 307 309 305 301 292 294 299 305 304 298 294 293 298 302 301 298 298 301 300 295 294 296 305 304 302 299 295 293 295 289 288 289
318 318 318 317 316 316 315 314 314 313 312 308 300 299 304 310 310 304 296 292 298 305 306 305 295 297 292 296 298 297 297 302 302 303 300 298 294 301 303 302 301 298 299 291 290 284 283
317 317 317 316 316 315 315 315 314 314 311 307 300 299 309 310 307 298 290 290 299 306 306 304 300 299 297 300 300 297 298 301 303 303 301 295 293 296 299 297 294 295 293 292 290 288 284
314 317 317 316 315 315 314 314 314 312 308 303 298 294 309 306 298 294 290 297 302 305 307 306 304 302 300 301 298 298 298 299 304 301 297 298 292 290 294 298 300 296 293 291 288 286 287
312 314 317 316 315 314 314 313 313 311 306 298 295 299 310 305 292 291 296 302 307 305 303 303 302 304 304 299 297 300 300 304 305 302 296 298 289 286 292 295 299 296 297 293 290 289 287
311 312 315 316 315 314 313 313 312 310 307 300 295 293 301 300 297 295 294 298 301 306 304 304 302 304 302 300 299 297 298 305 306 307 312 304 292 288 288 290 295 294 298 296 291 287 290
310 310 313 316 315 314 313 313 312 309 307 299 294 293 300 297 296 295 295 296 299 298 301 304 302 303 301 296 298 296 300 301 307 309 302 299 293 294 295 298 299 298 297 297 294 293 291
309 310 311 315 315 315 314 313 312 309 306 297 292 296 298 297 300 297 295 294 299 300 301 301 302 305 303 298 298 297 300 298 299 301 298 296 292 294 294 298 298 296 298 298 297 297 294
308 309 310 313 315 315 314 313 312 309 305 295 296 300 299 298 298 295 295 296 300 299 305 306 305 303 302 303 303 302 300 300 299 297 296 295 293 290 288 295 295 291 296 297 296 296 296
308 308 310 312 315 315 314 314 312 310 305 298 300 300 299 297 300 301 305 305 302 304 303 307 306 301 303 305 305 305 303 302 302 299 297 295 293 291 289 291 285 294 301 301 296 297 296
308 308 310 312 313 314 314 314 312 311 308 300 300 300 299 298 302 303 303 303 306 305 305 305 306 305 305 303 299 297 296 297 299 300 299 297 293 290 288 287 292 298 300 298 296 295 298
308 307 309 311 312 315 314 314 313 311 308 301 299 301 299 299 299 304 302 303 301 299 302 303 305 305 305 298 297 291 291 294 293 296 299 299 296 293 289 287 285 294 303 303 301 291 298
308 308 308 310 312 315 315 314 314 312 309 303 300 302 301 299 303 302 300 301 307 302 299 300 302 298 300 295 293 292 293 298 292 292 293 293 293 290 288 288 293 299 300 302 291 291 297
308 308 307 308 311 315 315 315 314 312 310 305 301 303 303 300 303 307 307 304 306 303 298 300 299 299 295 294 294 294 293 294 294 295 294 293 290 290 289 287 286 299 299 294 296 296 298
308 308 307 308 311 313 314 315 314 312 311 306 298 304 306 302 303 307 309 309 308 307 304 302 299 302 297 297 296 296 294 294 292 292 298 294 296 293 292 291 297 298 297 298 298 297 297
Wind_Speed
2 2 2 4 5 6 7 9 10 11 13 15 17 19 19 20 20 20 20 21 21 20 20 18 16 12 7 2 7 4 9 7 4 2 3 2 4 2 1 2 3 4 4 5 6 6 6
3 3 3 4 5 6 6 7 9 12 12 15 17 17 18 21 22 22 22 22 21 20 18 16 12 8 4 2 0 8 7 4 3 2 3 3 3 4 2 4 4 6 2 5 1 5 7
4 4 3 4 5 7 7 8 9 11 12 15 17 20 21 22 23 23 23 23 23 21 18 13 7 2 1 8 2 6 7 4 4 3 1 4 3 0 1 5 2 1 5 4 8 4 5
5 4 4 4 5 7 8 9 9 11 13 14 17 20 21 25 26 26 25 24 23 19 9 7 5 3 6 2 3 2 3 3 5 5 3 4 4 1 2 5 9 7 7 4 5 8 6
7 6 5 5 6 7 8 10 11 12 13 14 17 20 22 24 27 27 26 25 19 7 5 6 2 0 6 2 2 3 4 3 1 1 1 1 5 3 5 4 6 8 2 3 3 11 3
8 7 7 5 7 7 8 9 11 13 15 17 17 20 22 25 27 28 28 20 3 2 1 2 4 2 2 1 4 2 2 1 3 2 4 6 6 4 4 5 2 2 3 5 5 7 18
9 8 7 7 7 7 8 9 11 11 13 16 19 20 24 26 28 29 15 2 7 7 7 3 2 4 6 8 3 2 3 4 2 7 1 1 5 2 5 6 3 3 6 10 2 3 11
10 9 8 8 7 7 8 9 10 12 13 16 17 20 23 27 28 25 5 7 5 4 9 4 5 6 6 3 3 2 4 2 2 1 4 6 1 5 2 4 3 3 8 4 6 3 8
10 9 9 8 8 8 8 9 10 11 13 15 16 18 23 29 28 4 4 6 2 2 3 8 5 4 4 7 2 4 4 2 2 2 2 3 5 3 1 3 3 3 5 5 8 3 5
11 11 10 9 9 9 8 9 10 11 12 14 16 17 18 32 4 5 4 3 6 5 4 5 3 7 4 2 3 4 4 2 3 2 4 2 4 2 2 2 4 2 5 5 14 5 4
15 12 11 10 9 9 9 9 10 11 12 13 16 16 15 8 5 4 4 9 7 3 2 2 3 1 1 5 2 4 0 3 1 2 4 2 2 1 2 1 2 4 5 6 5 5 5
15 14 12 11 10 10 9 9 10 12 13 13 14 18 15 1 1 7 8 9 4 5 2 1 4 3 4 2 4 2 2 6 2 3 2 5 4 2 1 3 3 4 5 8 6 4 5
16 14 13 11 11 10 9 8 9 11 13 15 17 18 11 2 4 4 6 4 5 3 4 2 3 4 2 2 1 1 3 6 3 3 6 6 4 6 3 6 6 8 8 5 6 7 3
16 15 13 12 11 10 9 9 8 10 11 15 20 22 4 5 3 5 3 6 2 3 4 3 3 5 4 5 3 3 3 6 5 4 3 3 7 7 9 2 5 4 5 7 2 1 3
15 15 14 13 11 10 9 8 7 8 10 13 18 5 4 4 4 1 6 2 6 3 3 3 3 5 2 1 5 5 4 2 3 3 4 3 3 5 5 4 2 2 6 4 8 3 4
15 14 14 13 11 10 9 7 7 6 9 8 4 5 5 1 4 5 4 5 4 4 5 1 3 3 4 1 5 4 4 2 3 5 1 2 3 2 5 3 6 5 4 5 5 2 1
14 14 14 13 12 10 9 7 7 6 8 7 3 5 3 3 3 5 3 5 6 7 5 1 3 4 2 5 4 3 3 3 5 4 7 2 3 4 4 5 3 7 5 7 6 4 5
8 14 14 13 12 11 10 7 6 3 8 7 2 3 2 1 4 1 1 3 5 7 3 2 3 3 3 4 5 4 3 3 6 1 3 2 5 2 1 1 2 2 2 4 6 3 2
7 8 16 14 13 12 10 8 6 2 5 2 1 4 4 3 1 2 5 5 4 4 4 5 3 3 2 5 8 3 3 2 7 4 3 2 4 4 7 7 7 7 6 4 4 4 2
7 9 10 15 14 12 11 10 8 6 4 4 2 2 4 4 1 2 3 4 6 3 2 3 3 5 6 7 6 6 3 5 4 4 8 7 4 5 7 3 2 4 7 4 3 4 4
12 11 9 12 13 13 13 11 11 8 6 4 2 3 1 2 3 3 2 3 4 6 5 7 4 5 6 5 5 5 3 2 5 7 5 6 5 2 4 6 7 5 7 10 6 1 3
15 13 12 12 16 14 13 13 13 10 7 4 2 1 4 3 3 2 3 3 3 4 3 4 5 3 5 6 6 7 5 2 1 6 4 4 2 2 6 7 8 8 7 7 7 6 6
14 15 14 9 17 16 15 15 14 13 6 2 1 3 3 3 2 2 3 4 2 2 7 3 4 8 10 4 6 5 5 6 5 4 3 5 5 3 0 3 2 7 5 4 3 3 3
16 14 15 14 16 17 15 17 17 16 6 3 2 2 1 3 1 1 3 3 3 3 5 3 5 6 2 4 6 6 10 10 11 8 3 5 4 2 2 3 3 4 2 3 5 1 2
14 14 14 15 12 18 17 17 19 17 10 3 2 3 1 1 3 4 5 4 2 3 4 4 6 1 6 7 6 6 6 6 7 8 9 5 5 5 5 3 1 2 3 1 1 1 1
15 13 14 9 11 21 19 18 19 18 11 4 1 3 1 1 2 3 2 3 2 2 4 3 4 4 7 4 4 3 2 3 2 3 1 5 7 6 2 4 3 2 2 5 3 4 3
16 15 13 8 8 22 20 19 19 18 15 5 2 3 2 1 3 1 1 2 1 2 4 2 4 3 3 3 4 2 1 2 3 3 2 4 5 4 2 2 2 3 8 5 4 4 4
16 15 13 14 10 18 20 19 19 19 18 5 3 5 3 1 5 1 3 2 1 2 5 2 4 5 5 6 3 2 3 1 4 2 1 3 4 1 2 3 2 5 3 3 4 1 2
17 15 14 15 13 13 21 20 20 20 18 6 1 1 3 3 4 3 4 4 3 3 5 2 5 2 5 6 2 3 3 3 2 1 3 2 4 5 3 4 2 3 4 2 3 3 4
Wind_Direction
263 304 342 7 4 11 360 346 348 338 339 333 329 335 327 321 316 312 316 312 307 309 302 303 306 310 287 336 253 126 122 131 121 142 88 92 55 105 119 234 341 170 262 97 298 86 66
243 268 304 335 348 345 353 341 338 335 336 328 330 322 324 325 316 319 314 311 310 303 297 296 292 310 258 299 3 136 121 112 106 113 138 164 168 198 206 212 166 201 296 296 168 94 63
236 251 276 310 328 330 335 336 336 333 329 329 330 327 330 321 325 318 316 316 311 304 294 275 262 249 67 229 73 139 160 182 177 182 226 190 151 158 285 307 223 217 43 36 18 293 142
238 243 263 288 306 317 329 330 333 331 333 334 329 328 327 328 323 319 319 319 309 308 283 217 197 236 243 248 90 139 148 255 189 214 219 171 153 136 303 319 360 17 74 66 1 357 1
233 241 247 268 290 307 317 323 329 331 333 333 329 331 330 328 321 318 323 316 308 306 117 137 183 168 274 307 270 243 162 235 234 206 256 117 90 74 17 54 15 6 40 23 44 359 75
226 233 244 248 272 291 307 319 324 329 332 334 331 330 329 329 321 323 326 307 226 77 72 218 254 35 292 294 293 256 200 192 272 313 34 52 49 54 30 64 228 350 57 60 58 340 69
220 226 236 250 264 286 302 316 320 325 327 328 331 333 331 326 325 329 335 297 5 8 28 278 229 245 279 296 267 222 150 127 102 59 80 51 76 232 223 197 209 102 89 111 130 144 66
220 229 230 245 256 275 295 309 317 322 325 327 334 328 329 327 331 320 279 72 90 243 311 266 242 267 259 246 308 305 114 127 69 10 330 27 7 234 213 161 118 118 112 86 52 18 90
221 233 237 240 255 269 286 301 314 319 321 325 329 331 332 330 323 4 332 91 327 180 239 297 221 222 235 146 220 269 144 137 114 61 17 130 254 323 126 78 126 118 124 191 132 109 26
229 221 235 243 252 265 275 293 308 314 319 322 325 331 336 329 39 322 307 353 273 209 42 271 253 275 154 181 299 220 196 133 31 40 137 221 291 28 360 94 122 88 174 166 141 115 173
227 230 225 237 248 257 270 284 301 310 316 320 320 328 330 344 286 310 298 316 326 81 56 168 177 106 48 132 291 349 210 54 164 350 61 279 329 325 32 353 193 187 89 131 121 92 106
213 213 216 226 240 250 264 279 295 305 313 318 322 318 335 28 341 253 324 306 59 41 270 146 130 134 98 25 355 320 59 45 70 68 15 259 296 273 282 88 49 122 87 55 56 80 46
206 209 211 216 231 245 259 274 290 305 315 317 318 307 310 161 243 320 300 40 43 133 346 187 149 119 102 147 329 64 58 33 67 55 4 341 339 317 39 45 7 60 53 1 18 20 201
203 206 207 211 223 238 253 269 287 305 317 321 315 310 198 233 275 350 18 50 196 264 243 306 131 102 157 171 31 46 54 32 12 58 70 61 356 2 333 96 171 59 126 141 179 189 241
202 201 205 208 216 228 245 260 282 307 321 326 317 323 296 272 157 126 66 91 219 222 299 340 97 102 241 113 107 76 52 48 17 4 114 115 13 337 51 356 71 156 54 161 105 24 79
200 201 202 204 209 219 233 248 273 305 322 352 342 339 284 40 157 60 80 236 258 229 325 18 126 117 167 110 85 81 15 22 333 44 177 170 111 10 298 41 23 105 146 52 14 87 353
194 198 201 199 203 208 218 234 258 306 323 331 24 3 304 150 73 46 177 238 284 269 223 221 131 114 131 118 83 69 345 358 8 351 65 61 80 297 37 30 332 2 25 50 106 110 156
313 203 199 198 198 199 206 211 235 301 331 45 31 349 307 42 40 64 228 218 287 282 349 327 103 92 118 105 72 84 105 317 345 298 56 353 127 80 128 359 264 39 110 111 112 225 68
280 279 201 193 196 195 193 193 194 171 58 98 51 266 309 97 183 303 291 278 256 301 331 348 65 73 80 110 101 91 107 353 15 56 97 182 21 45 353 355 8 44 348 81 95 94 168
256 290 219 187 193 189 185 183 167 169 131 88 70 344 312 56 146 166 316 290 296 285 290 25 48 86 83 46 19 136 109 25 19 70 61 84 82 136 169 207 202 20 349 356 96 94 166
241 259 272 196 186 189 181 177 163 166 151 91 61 259 239 291 306 242 321 286 307 358 338 26 25 45 122 92 56 88 80 62 25 1 48 86 82 61 40 83 81 94 49 35 70 26 98
225 243 266 219 195 191 181 174 162 158 129 80 154 106 351 282 309 210 178 264 309 326 7 342 99 16 87 134 167 165 130 137 155 24 58 23 122 5 45 62 73 72 38 57 52 55 66
223 231 250 237 193 188 179 169 164 162 116 119 261 279 122 266 330 146 215 263 275 295 13 43 116 91 51 352 113 97 86 84 91 103 93 72 117 81 93 318 270 32 356 42 74 35 158
211 229 240 221 204 183 181 171 167 174 141 130 206 107 89 292 334 244 323 276 288 306 135 12 30 80 113 128 98 58 51 66 57 37 76 113 88 76 149 26 54 272 8 79 117 86 57
214 223 247 206 237 180 179 175 170 179 152 103 177 101 185 231 252 297 330 301 339 37 69 66 6 355 137 52 60 52 357 28 27 34 24 61 118 68 105 76 191 192 258 308 314 283 254
210 221 239 204 263 182 182 178 172 176 144 93 186 126 140 188 301 268 310 310 103 53 28 34 34 20 59 76 77 107 166 147 50 16 136 48 70 103 78 103 173 253 313 348 126 323 357
202 216 233 247 255 182 181 179 174 170 161 120 240 165 120 338 274 146 70 267 321 73 107 328 347 57 60 62 73 114 104 163 117 110 11 12 8 79 73 114 278 331 306 309 54 259 349
196 205 217 237 235 190 175 179 173 165 161 134 245 188 138 265 278 296 5 16 3 48 123 252 49 354 45 65 109 172 104 120 81 96 112 136 117 123 73 75 8 0 337 68 211 14 30
194 197 211 223 216 204 172 176 168 163 162 119 239 225 137 196 257 302 284 287 297 212 137 29 157 148 173 90 71 114 92 64 135 153 31 37 170 170 150 208 220 326 101 84 145 95 12